Muskegon, MI

7:43 PM EST on November 20, 2019 (GMT -0500)
Muskegon County

Weather History for KMKG - September, 2019

Change the Weather History Date:

Tuesday, September 24, 2019

  Actual Average Record
Temperature  
Mean Temperature 65 °F 59 °F  
Max Temperature 74 °F 68 °F 89 °F (2017)
Min Temperature 56 °F 50 °F 28 °F (1950)
Degree Days  
Heating Degree Days 0 7  
Month to date heating degree days 21 93  
Since 1 July heating degree days 25 123  
Cooling Degree Days 0 1  
Month to date cooling degree days 77 51  
Year to date cooling degree days 622 558  
Growing Degree Days 14 (Base 50)    
Moisture  
Dew Point 58 °F    
Average Humidity 75    
Maximum Humidity 93    
Minimum Humidity 57    
Precipitation  
Precipitation 0.00 in 0.14 in 1.29 in (1977)
Month to date precipitation 4.20 3.13  
Year to date precipitation 31.33 23.71  
Snow  
Snow 0.00 in 0.00 in T in (1942)
Month to date snowfall 0.0 0.0  
Since 1 July snowfall 0.0 0.0  
Since 1 September snowfall 0.0 0.0  
Snow Depth 0.00 in    
Sea Level Pressure  
Sea Level Pressure 29.90 in    
Wind  
Wind Speed 11 mph (SSW)    
Max Wind Speed 22 mph    
Max Gust Speed 32 mph    
Visibility 10 miles    
Events      
T = Trace of Precipitation, MM = Missing Value Source: NWS Daily Summary

Daily Weather History Graph

Daily Weather History Graph

Search for Another Location

Airport or City:

Astronomy

Sep. 24, 2019 Rise Set
Actual Time 7:34 AM EDT 7:39 PM EDT
Civil Twilight 7:05 AM EDT 8:07 PM EDT
Nautical Twilight 6:32 AM EDT 8:40 PM EDT
Astronomical Twilight 5:58 AM EDT 9:14 PM EDT
Moon 2:08 AM EDT (9/24) 5:33 PM EDT (9/24)
Length of Visible Light 13h 01m
Length of Day
12h 04m
Waning Crescent, 23% of the Moon is Illuminated
Sep 24
Waning Crescent
Sep 28
New
Oct 5
First Quarter
Oct 13
Full
Oct 21
Last Quarter

Hourly Weather History & Observations

Time (EDT) Temp. Dew Point Humidity Pressure Visibility Wind Dir Wind Speed Gust Speed Precip Events Conditions
12:55 AM 55.9 °F 53.1 °F 90% 29.98 in 10.0 mi Calm Calm - N/A   Clear
1:55 AM 57.9 °F 55.0 °F 90% 29.97 in 10.0 mi Calm Calm - N/A   Mostly Cloudy
2:55 AM 60.1 °F 55.0 °F 83% 29.96 in 10.0 mi WSW 4.6 mph - N/A   Scattered Clouds
3:55 AM 64.9 °F 55.9 °F 73% 29.95 in 10.0 mi West 6.9 mph - N/A   Clear
4:55 AM 64.9 °F 55.9 °F 73% 29.95 in 10.0 mi West 6.9 mph - N/A   Scattered Clouds
5:55 AM 63.0 °F 55.9 °F 78% 29.96 in 10.0 mi WSW 6.9 mph - N/A   Partly Cloudy
6:55 AM 60.1 °F 55.9 °F 86% 29.97 in 10.0 mi WSW 5.8 mph - N/A   Clear
7:55 AM 57.0 °F 55.0 °F 93% 29.98 in 10.0 mi WSW 4.6 mph - N/A   Clear
8:55 AM 64.9 °F 60.1 °F 84% 29.98 in 10.0 mi SW 3.5 mph - N/A   Partly Cloudy
9:55 AM 70.0 °F 59.0 °F 68% 29.97 in 10.0 mi WSW 5.8 mph - N/A   Partly Cloudy
10:55 AM 73.0 °F 57.0 °F 57% 29.96 in 10.0 mi SSW 9.2 mph - N/A   Scattered Clouds
11:55 AM 73.0 °F 57.9 °F 59% 29.95 in 10.0 mi SW 9.2 mph - N/A   Scattered Clouds
12:55 PM 73.0 °F 60.1 °F 64% 29.94 in 10.0 mi South 12.7 mph 21.9 mph N/A   Mostly Cloudy
1:55 PM 71.1 °F 61.0 °F 70% 29.91 in 10.0 mi South 16.1 mph 23.0 mph N/A   Overcast
2:55 PM 72.0 °F 61.0 °F 68% 29.89 in 10.0 mi South 15.0 mph - N/A   Mostly Cloudy
3:55 PM 73.0 °F 60.1 °F 64% 29.87 in 10.0 mi South 17.3 mph 26.5 mph N/A   Mostly Cloudy
4:55 PM 72.0 °F 61.0 °F 68% 29.85 in 10.0 mi South 12.7 mph 24.2 mph N/A   Mostly Cloudy
5:55 PM 71.1 °F 61.0 °F 70% 29.83 in 10.0 mi South 13.8 mph 24.2 mph N/A   Mostly Cloudy
6:55 PM 72.0 °F 61.0 °F 68% 29.82 in 10.0 mi South 12.7 mph 25.3 mph N/A   Scattered Clouds
7:55 PM 70.0 °F 61.0 °F 73% 29.81 in 10.0 mi South 12.7 mph - N/A   Scattered Clouds
8:55 PM 70.0 °F 61.0 °F 73% 29.79 in 10.0 mi South 13.8 mph 24.2 mph N/A   Mostly Cloudy
9:55 PM 70.0 °F 61.0 °F 73% 29.76 in 10.0 mi South 15.0 mph - N/A   Mostly Cloudy
10:55 PM 70.0 °F 61.0 °F 73% 29.73 in 10.0 mi South 13.8 mph 23.0 mph N/A   Mostly Cloudy
11:55 PM 70.0 °F 61.0 °F 73% 29.75 in 10.0 mi SSW 17.3 mph 28.8 mph N/A   Clear